Showing default

COSMOS 2540, 44517

Orbit data source: Space-Track

COSMOS 2540, 44517 is a payload satellite owned by TS VS RF (CIS) in SSO that was launched on Fri, 30 Aug 2019 UTC via an ROKOT launch vehicle from the Plesetsk Missile And Space Complex (PKMTR). Payload-class satellites include a variety of spacecraft equipped with specific instruments for various scientific and technological missions. These include communications satellites like Starlink; space stations such as the ISS; scientific satellites like the Hubble; Earth observation satellites from companies like Planet Labs, Umbra, and HawkEye 360; GPS; miniature CubeSats for education and research; and military/defense satellites.

Loading next visibility...
Identifier
44517, 2019-057A
Orbit
SSO
Country
Flag of CISCIS
Related business
Manufacturer
Resehetnev ISS
Mission
Operational Defense Geodetic
Bus & Motor
GEO-IK-2 14F31, Unknown motor
Mass
~900 kg wet, ~900 kg dry
Launch date (UTC)
2019-08-30 (6 years ago)
Launch vehicle
ROKOT
Launch site
Plesetsk Missile And Space Complex (PKMTR)
Object type
Payload
Rocket body
Debris
Shape & HBR
Cyl + 2 Pan, 1.5 m
Radar Cross Section
3.727 m², Large (>1 m²)

Expand to show TLE details & history
Last TLE update: 5 hours ago

TLE from 5 hours ago
0 COSMOS 2540
1 44517U 19057A   25355.59721728  .00000035  00000-0  68932-4 0  9994
2 44517  99.2117   5.1447 0014843 288.2716  71.6824 13.85910932319278
Epoch: 2025-12-21T14:19Z
TLE epoch observation values (Epoch: 2025-12-21T14:19:59.572Z)
Latitude
-0.00012°
Longitude
59.73912°
Altitude
942.446 km
Speed
7.382 km/s
True Right ascension
00h 20m 34s
True Declination
0° 00' 00"
Sunlit
Object was in daylight at epoch
Visualization orbit readout
Latitude
Unknown
Longitude
Unknown
Altitude
Unknown
Speed
Unknown
Apparent Right ascension
Unknown
Apparent Declination
Unknown
Sunlit
N/A
Visualization observer readout
Local Sidereal Time
18:22:46
Azimuth
Unknown
Elevation
Unknown
Doppler factor
Unknown
Orbital elements
Apogee altitude
951.087 km
Perigee altitude
929.362 km
Semi-major axis
7,318.362 km
Eccentricity
0.00148
Inclination
99.2117°
RAAN
5.1447°
Arg. of periapsis
288.2716°
True anomaly
71.84396°
Mean anomaly
71.6824°
Eccentric anomaly
71.76317°
Mean motion
3.46675 °/min
Orbital period
103.84 mins
BSTAR
0.000068932
Loading maneuver chart data...
Computing Atmospheric mass density...
Loading historical data...
Loading historical data...
Loading historical data...
Loading historical data...
Loading historical data...
Loading historical data...
Loading historical data...
Other satellites on launch #57 in the year 2019 (2019-08-30 UTC)

Documentation

Showing up to 5 results
|